User: anonymous   Login
Location: Unspecified
(0.0000°N, 0.0000°E)
Time: 20:20:44
(UTC+00:00)
Language:

STARLINK-3827 - Orbit

View from above orbital plane
View from above orbital plane
View from above satellite
View from above satellite

Ground track
Ground track

The orbit is defined by the following mean orbital elements,

1 52370U          26145.41152661 +.00000000 +00000-0 +27874-4 0 00006
2 52370  53.2124 204.7141 0001085  89.1612 270.9504 15.08838570    08
Epoch (UTC): 25 May 2026 09:52:35
Eccentricity: 0.0001085
inclination: 53.2124°
perigee height: 539 km
apogee height: 540 km
right ascension of ascending node: 204.7141°
argument of perigee: 89.1612°
revolutions per day: 15.08838570
mean anomaly at epoch: 270.9504°

The dashed part of the orbit path shows where the satellite is in the earth's shadow,  

DLR